Location: USNO
(38.9242°N, 77.0663°W)
Time: 14:42:04
(UTC-04:00)

Envisat - Pass Details

Date: 15 October 2017
Orbit: 764 x 766 km, 98.2° (Epoch: 18 October)

Event Time Altitude Azimuth Distance (km) Brightness Sun altitude
Exits shadow 19:43:02 17° 55° (NE) 1,871 4.5 -15.1°
Drops below altitude 10° 19:45:40 10° 24° (NNE) 2,308 5.3 -15.6°
Sets 19:48:42 0° 5° (N) 3,238 6.2 -16.2°
